[[{"header":{"parameterUnit":"m.s-1","parameterCategory":1,"la1":30.2991,"la2":30.254,"lo1":-89.0895,"lo2":-89.0444,"dx":0.0017,"dy":0.0017,"nx":28,"ny":28,"refTime":"2023-01-14T03:00:00:Z","depth":0,"parameterNumber":2,"parameterNumberName":"U-component_of_WINDS"},"data":[0,0,0,0,0,0,0,0,0,0,0,0,0,0,0,0,0,0,0,0,0,0,0,0,0,0,0,0,0,0,0,0,0,0,0,0,0,0,0,0,0,0,0,0,0,0,0,0,0,0,0,0,0,0,0,0,0,0,-0.99,-0.99,0,-0.9914,-0.9914,-0.9914,-0.9881,-0.988,-0.9879,-0.9878,-0.9893,-0.9895,-0.9896,0,0,0,0,0,0,0,0,0,0,0,0,0,-0.9846,-0.9847,-0.99,-0.99,-0.9901,-0.9914,-0.9914,-0.9914,-0.9881,-0.988,-0.9879,-0.9878,-0.9893,-0.9894,-0.9896,0,0,0,0,0,0,0,0,0,0,0,0,0,-0.9866,-0.9848,-0.99,-0.9886,-0.9885,-0.9914,-0.9914,-0.9914,-0.9882,-0.988,-0.9878,-0.9877,-0.9892,-0.9894,-0.9896,-0.994,0,0,-0.9903,-0.9903,0,0,0,0,0,0,0,0,-0.9865,-0.9868,-0.9888,-0.9887,-0.9886,-0.9894,-0.99,-0.9923,-0.9882,-0.9883,-0.9878,-0.9876,-0.9895,-0.9897,-0.9903,-0.9941,-0.9942,-0.9903,-0.9904,-0.9905,-0.9905,0,0,0,0,0,0,0,-0.9863,-0.9867,-0.9906,-0.9888,-0.9887,-0.9879,-0.988,-0.9904,-0.9898,-0.9883,-0.988,-0.9882,-0.9894,-0.9901,-0.9903,-0.9942,-0.9903,-0.9905,-0.9906,-0.9907,-1.0015,-1.0017,0,0,0,0,0,0,-0.9864,-0.9866,-0.9905,-0.9906,-0.9871,-0.9881,-0.9882,-0.9893,-0.9897,-0.9896,-0.9884,-0.9881,-0.9898,-0.99,-0.9903,-0.9954,-0.9905,-0.9907,-0.9908,-1.0013,-1.0015,-1.0017,0,0,0,0,0,0,-0.9863,-0.9868,-0.9905,-0.9885,-0.9889,-0.9883,-0.9896,-0.9894,-0.9901,-0.9898,-0.9896,-0.9892,-0.9897,-0.99,-0.9931,-0.9954,-0.9908,-0.991,-1.0011,-1.0014,-1.0016,-1.0056,0,0,0,0,0,0,-0.9861,-0.9867,-0.9884,-0.9886,-0.9891,-0.9932,-0.9898,-0.9895,-0.9904,-0.9901,-0.9905,-0.9904,-0.9896,-0.9928,-0.9933,-0.9956,-0.9911,-1.0009,-1.0013,-1.0016,-1.0052,-1.0059,-1.0065,0,0,0,0,0,-0.9859,-0.9896,-0.9885,-0.989,-0.9912,-0.9934,-0.9936,-0.9925,-0.9906,-0.9923,-0.9921,-0.9904,-0.995,-0.9931,-0.9937,-0.996,-1.0008,-1.0012,-1.0015,-1.005,-1.0058,-1.0065,0,0,0,0,0,0,-0.9898,-0.9896,-0.9884,-0.9922,-0.9928,-0.9928,-0.9949,-0.9935,-0.9947,-0.9943,-0.993,-0.9931,-0.9964,-0.9965,-0.9944,-1.0002,-0.9976,-0.9981,-1.0,-1.0008,-1.0014,-1.0013,-0.9913,0,0,0,0,0,-0.9911,-0.9929,-0.9926,-0.9959,-0.9963,-0.9955,-0.9965,-0.9955,-0.9962,-0.9964,-0.9964,-0.9971,-0.9987,-0.9998,-1.0012,-1.0052,-1.0052,-1.0071,-1.0078,-1.0083,-1.0087,-1.0107,-1.0115,-1.0029,-1.0029,-1.0029,0,0,-0.9938,-0.9938,-0.9951,-0.9967,-0.9971,-0.9989,-0.9958,-0.998,-0.9993,-0.9968,-0.9996,-0.9996,-1.0003,-1.0038,-1.0053,-1.004,-1.0111,-1.0088,-1.0092,-1.0093,-1.0111,-1.012,-1.0127,-1.0032,-1.0031,-1.0031,0,0,-0.9995,-0.9999,-1.0026,-1.003,-1.0035,-1.0029,-1.0036,-1.0038,-1.0036,-1.0064,-1.0045,-1.0061,-1.0089,-1.0094,-1.01,-1.0158,-1.0142,-1.0163,-1.0196,-1.0215,-1.0222,-1.0228,-1.0247,-1.0254,-1.0167,-1.0167,-1.0167,0,-1.0028,-1.0055,-1.0042,-1.0064,-1.0071,-1.0048,-1.0075,-1.0079,-1.009,-1.0095,-1.008,-1.0113,-1.0116,-1.0151,-1.0165,-1.0171,-1.0177,-1.0162,-1.0222,-1.0228,-1.0233,-1.0251,-1.0259,-1.017,-1.0169,-1.0169,-1.0169,0,-1.0094,-1.0113,-1.0135,-1.0143,-1.0153,-1.0178,-1.0168,-1.0179,-1.0169,-1.0165,-1.0193,-1.0195,-1.0209,-1.0216,-1.0207,-1.025,-1.0241,-1.0224,-1.0197,-1.0244,-1.0261,-1.0268,-1.0173,-1.0172,-1.0171,-1.0171,0,0,-1.0178,-1.0178,-1.0186,-1.0188,-1.0192,-1.0206,-1.0229,-1.0242,-1.0251,-1.0259,-1.0277,-1.03,-1.0284,-1.0291,-1.0282,-1.0299,-1.0342,-1.028,-1.028,-1.029,-1.0388,-1.0399,-1.0408,-1.0332,-1.0334,-1.0335,-1.0387,0,-1.0234,-1.0273,-1.026,-1.0299,-1.0316,-1.0293,-1.0313,-1.0317,-1.0313,-1.0327,-1.0323,-1.0339,-1.0317,-1.0321,-1.0337,-1.0334,-1.0361,-1.033,-1.0349,-1.0349,-1.0347,-1.0417,-1.043,-1.0479,-1.0393,-1.0394,-1.0395,0,-1.0305,-1.0313,-1.0354,-1.0352,-1.0359,-1.0377,-1.0386,-1.0399,-1.0403,-1.0399,-1.0406,-1.0393,-1.0414,-1.0388,-1.0417,-1.0396,-1.0403,-1.0402,-1.0404,-1.0404,-1.0375,-1.0418,-1.0494,-1.0501,-1.0406,-1.0405,-1.0404,0,-1.036,-1.0382,-1.0408,-1.0412,-1.0411,-1.0424,-1.0424,-1.0426,-1.0434,-1.0442,-1.0447,-1.0458,-1.0464,-1.0473,-1.0463,-1.0444,-1.0493,-1.0466,-1.049,-1.049,-1.0501,-1.05,-1.0578,-1.0507,-1.0507,-1.0507,-1.0507,0,-1.0424,-1.0449,-1.0432,-1.0449,-1.0476,-1.0461,-1.0489,-1.0486,-1.0488,-1.0503,-1.0485,-1.0499,-1.0485,-1.0499,-1.0491,-1.0516,-1.0519,-1.0516,-1.0513,-1.0517,-1.0517,-1.0521,-1.0517,-1.0509,-1.0508,-1.0508,-1.0508,0,-1.049,-1.048,-1.0507,-1.0503,-1.0503,-1.0523,-1.052,-1.0534,-1.0529,-1.0548,-1.0552,-1.0543,-1.0558,-1.0548,-1.0564,-1.0558,-1.059,-1.0583,-1.0588,-1.0586,-1.061,-1.0608,-1.0692,-1.0702,-1.0626,-1.0627,-1.0627,0,-1.053,-1.0549,-1.0547,-1.0555,-1.0556,-1.057,-1.0577,-1.0563,-1.0571,-1.0575,-1.0589,-1.0602,-1.0611,-1.0635,-1.063,-1.0641,-1.0634,-1.0663,-1.0636,-1.0638,-1.0633,-1.0631,-1.0632,-1.0668,-1.0669,-1.067,-1.067,0,-1.0603,-1.0597,-1.0607,-1.0616,-1.0624,-1.063,-1.0635,-1.0643,-1.0629,-1.0639,-1.0653,-1.066,-1.0674,-1.0686,-1.0695,-1.0695,-1.068,-1.0679,-1.0685,-1.0688,-1.069,-1.0688,-1.0602,-1.0677,-1.0676,-1.0676,-1.0676,-1.0675,-1.0657,-1.0671,-1.0671,-1.0683,-1.0685,-1.0689,-1.0702,-1.0697,-1.0708,-1.0718,-1.0709,-1.0725,-1.0727,-1.0737,-1.0739,-1.0751,-1.074,-1.0749,-1.0751,-1.0753,-1.0755,-1.0689,-1.0753,-1.0753,-1.0753,-1.0753,-1.0753,0,-1.0727,-1.0726,-1.0737,-1.0743,-1.0752,-1.0736,-1.074,-1.0749,-1.0763,-1.0765,-1.0774,-1.0789,-1.08,-1.0796,-1.0806,-1.0816,-1.081,-1.0819,-1.0818,-1.0818,-1.0766,-1.0759,-1.0825,-1.0825,-1.0825,-1.0825,-1.0825,-1.0825,-1.0765,-1.0788,-1.0781,-1.0805,-1.0803,-1.0818,-1.0821,-1.0825,-1.0826,-1.0844,-1.0852,-1.0849,-1.0849,-1.0858,-1.0867,-1.0866,-1.087,-1.0882,-1.0878,-1.0829,-1.0822,-1.0815,-1.0809,-1.0883,-1.0883,-1.0928,-1.0929,-1.0929]},{"header":{"parameterUnit":"m.s-1","parameterCategory":1,"la1":30.2991,"la2":30.254,"lo1":-89.0895,"lo2":-89.0444,"dx":0.0017,"dy":0.0017,"nx":28,"ny":28,"refTime":"2023-01-14T03:00:00:Z","depth":0,"parameterNumber":3,"parameterNumberName":"V-component_of_WINDS"},"data":[0,0,0,0,0,0,0,0,0,0,0,0,0,0,0,0,0,0,0,0,0,0,0,0,0,0,0,0,0,0,0,0,0,0,0,0,0,0,0,0,0,0,0,0,0,0,0,0,0,0,0,0,0,0,0,0,0,0,-3.2412,-3.2413,0,-3.2528,-3.253,-3.2531,-3.2512,-3.251,-3.2508,-3.2506,-3.2623,-3.2628,-3.2633,0,0,0,0,0,0,0,0,0,0,0,0,0,-3.2171,-3.2176,-3.2412,-3.2414,-3.2415,-3.2528,-3.253,-3.2531,-3.2512,-3.251,-3.2507,-3.2505,-3.2622,-3.2627,-3.2633,0,0,0,0,0,0,0,0,0,0,0,0,0,-3.228,-3.2177,-3.2412,-3.2419,-3.2421,-3.2528,-3.253,-3.2532,-3.2513,-3.251,-3.2507,-3.2504,-3.262,-3.2627,-3.2634,-3.2741,0,0,-3.2657,-3.266,0,0,0,0,0,0,0,0,-3.2274,-3.2289,-3.2417,-3.2419,-3.2421,-3.2503,-3.2488,-3.2602,-3.2514,-3.2478,-3.2506,-3.2502,-3.2585,-3.2596,-3.2624,-3.2746,-3.2751,-3.2658,-3.2662,-3.2666,-3.2668,0,0,0,0,0,0,0,-3.2267,-3.2284,-3.2458,-3.2418,-3.2421,-3.2416,-3.2428,-3.2509,-3.2547,-3.2481,-3.248,-3.2494,-3.2586,-3.2617,-3.2627,-3.2753,-3.2658,-3.2664,-3.2669,-3.2672,-3.2967,-3.2971,0,0,0,0,0,0,-3.2257,-3.2278,-3.2454,-3.2461,-3.2339,-3.2423,-3.2436,-3.2479,-3.2546,-3.2553,-3.2496,-3.2492,-3.2605,-3.2618,-3.2631,-3.2759,-3.2666,-3.2673,-3.2677,-3.2964,-3.2968,-3.2972,0,0,0,0,0,0,-3.2252,-3.2273,-3.245,-3.237,-3.2392,-3.243,-3.2479,-3.2483,-3.2514,-3.2558,-3.2564,-3.2521,-3.2604,-3.262,-3.2713,-3.2763,-3.2676,-3.2683,-3.296,-3.2965,-3.297,-3.3017,0,0,0,0,0,0,-3.2245,-3.2271,-3.2313,-3.2371,-3.2396,-3.2531,-3.2482,-3.2488,-3.2527,-3.2523,-3.2583,-3.2589,-3.2602,-3.2702,-3.2721,-3.2771,-3.2689,-3.2956,-3.2963,-3.2968,-3.3011,-3.3022,-3.3033,0,0,0,0,0,-3.2237,-3.2321,-3.2315,-3.2336,-3.2449,-3.2534,-3.2549,-3.2562,-3.2531,-3.2573,-3.2601,-3.2588,-3.2754,-3.2712,-3.2733,-3.2786,-3.2953,-3.2961,-3.2968,-3.3006,-3.302,-3.3032,0,0,0,0,0,0,-3.2268,-3.2329,-3.2323,-3.2428,-3.2476,-3.2531,-3.2584,-3.2577,-3.2634,-3.2628,-3.2642,-3.2656,-3.275,-3.2778,-3.273,-3.2892,-3.2849,-3.2861,-3.2871,-3.2885,-3.2896,-3.2887,-3.2695,0,0,0,0,0,-3.2287,-3.2352,-3.2402,-3.249,-3.2514,-3.2545,-3.2583,-3.2589,-3.2639,-3.2659,-3.2694,-3.2742,-3.2806,-3.2847,-3.2908,-3.3015,-3.3027,-3.3062,-3.3073,-3.3081,-3.3091,-3.3149,-3.3165,-3.2997,-3.2997,-3.2996,0,0,-3.2327,-3.2368,-3.2409,-3.2497,-3.2535,-3.2601,-3.2562,-3.2634,-3.2683,-3.267,-3.276,-3.2787,-3.2842,-3.2943,-3.2989,-3.2968,-3.3141,-3.3091,-3.3098,-3.3103,-3.3158,-3.3174,-3.3188,-3.3002,-3.3001,-3.3,0,0,-3.2433,-3.2472,-3.2549,-3.2588,-3.2646,-3.2666,-3.2685,-3.274,-3.2758,-3.2849,-3.284,-3.2898,-3.3007,-3.3046,-3.3081,-3.3202,-3.3192,-3.3221,-3.3278,-3.3334,-3.3347,-3.3359,-3.3401,-3.3417,-3.3231,-3.3231,-3.3232,0,-3.2476,-3.2576,-3.259,-3.2663,-3.2702,-3.2693,-3.2771,-3.2808,-3.2883,-3.2909,-3.2886,-3.3022,-3.3058,-3.3167,-3.3197,-3.3225,-3.3246,-3.3214,-3.3344,-3.3356,-3.3368,-3.3408,-3.3424,-3.3235,-3.3234,-3.3234,-3.3234,0,-3.2625,-3.2694,-3.275,-3.2822,-3.2867,-3.2943,-3.2967,-3.3011,-3.3013,-3.3035,-3.3128,-3.3171,-3.324,-3.3266,-3.327,-3.3376,-3.3361,-3.3341,-3.3298,-3.3387,-3.3425,-3.344,-3.3239,-3.3238,-3.3237,-3.3236,0,0,-3.2754,-3.2833,-3.2853,-3.2885,-3.2949,-3.3002,-3.3077,-3.3145,-3.3181,-3.3233,-3.3295,-3.3387,-3.3369,-3.3408,-3.3415,-3.3465,-3.3557,-3.3438,-3.344,-3.3458,-3.3675,-3.3689,-3.3707,-3.3551,-3.3554,-3.3556,-3.367,0,-3.2865,-3.2997,-3.3012,-3.3129,-3.3193,-3.3186,-3.325,-3.3296,-3.3318,-3.3375,-3.34,-3.3464,-3.3436,-3.3459,-3.3508,-3.3535,-3.36,-3.3527,-3.3607,-3.361,-3.3593,-3.3727,-3.3743,-3.3849,-3.3685,-3.3688,-3.369,0,-3.3013,-3.307,-3.3193,-3.3247,-3.3275,-3.3332,-3.3395,-3.345,-3.3501,-3.3514,-3.3557,-3.3558,-3.3634,-3.3589,-3.3693,-3.3642,-3.3676,-3.3695,-3.3699,-3.3706,-3.3654,-3.3737,-3.3883,-3.3898,-3.3714,-3.3712,-3.371,0,-3.3094,-3.32,-3.3288,-3.3316,-3.3382,-3.3422,-3.3451,-3.3499,-3.3539,-3.3594,-3.3619,-3.3682,-3.3717,-3.3765,-3.3783,-3.3748,-3.3885,-3.3842,-3.3897,-3.3897,-3.3926,-3.3923,-3.4078,-3.3949,-3.3949,-3.3949,-3.3948,0,-3.3217,-3.3292,-3.3325,-3.3379,-3.3463,-3.3479,-3.3561,-3.3588,-3.3631,-3.3689,-3.3687,-3.3742,-3.3762,-3.382,-3.3834,-3.3917,-3.3933,-3.3945,-3.3948,-3.3945,-3.3943,-3.3966,-3.3959,-3.3953,-3.3952,-3.3951,-3.395,0,-3.332,-3.3345,-3.344,-3.3494,-3.3509,-3.3569,-3.3615,-3.3666,-3.3688,-3.3762,-3.378,-3.3814,-3.3882,-3.3904,-3.3986,-3.3996,-3.4093,-3.409,-3.4076,-3.4076,-3.413,-3.4124,-3.4303,-3.4327,-3.4184,-3.4185,-3.4186,0,-3.3396,-3.3454,-3.3515,-3.3554,-3.3584,-3.3648,-3.3688,-3.3706,-3.3748,-3.381,-3.3854,-3.3921,-3.3976,-3.4084,-3.4116,-3.4178,-3.4176,-3.4235,-3.4185,-3.418,-3.4176,-3.4172,-3.4177,-3.4243,-3.4245,-3.4246,-3.4247,0,-3.3529,-3.3538,-3.3597,-3.366,-3.3709,-3.3759,-3.3808,-3.384,-3.3864,-3.3912,-3.3981,-3.4024,-3.4107,-3.4174,-3.4238,-3.4267,-3.4261,-3.4263,-3.4278,-3.4276,-3.4265,-3.427,-3.41,-3.4258,-3.4257,-3.4256,-3.4256,-3.4255,-3.362,-3.3671,-3.3721,-3.3787,-3.3825,-3.3871,-3.3922,-3.395,-3.4008,-3.4078,-3.4085,-3.416,-3.4208,-3.4293,-3.4326,-3.4384,-3.4367,-3.439,-3.4396,-3.4401,-3.4405,-3.4256,-3.4395,-3.4395,-3.4395,-3.4395,-3.4394,0,-3.3751,-3.3783,-3.3843,-3.3912,-3.3963,-3.3954,-3.4007,-3.405,-3.4116,-3.4163,-3.4217,-3.4296,-3.436,-3.4397,-3.4461,-3.4501,-3.45,-3.4517,-3.4514,-3.452,-3.4417,-3.4396,-3.4517,-3.4517,-3.4517,-3.4517,-3.4517,-3.4517,-3.3826,-3.3911,-3.3926,-3.4031,-3.4062,-3.4135,-3.4167,-3.4208,-3.4245,-3.4334,-3.4388,-3.4412,-3.4454,-3.4521,-3.4579,-3.4589,-3.4612,-3.4631,-3.4638,-3.454,-3.4528,-3.4516,-3.4496,-3.4636,-3.4636,-3.4736,-3.4737,-3.4738]}]]